Location: Follega
(52.8850°N, 5.7362°E)
Time: 23:55:27
(UTC+00:00)

Cosmos 2297 Rocket - Pass Details

Date: 08 October 2020
Orbit: 838 x 845 km, 71.0° (Epoch: 22 October)

Event Time Altitude Azimuth Distance (km) Brightness Sun altitude
Rises 21:02:33 0° 328° (NNW) 3,418 6.3 -35.2°
Reaches altitude 10° 21:05:01 10° 330° (NNW) 2,479 5.4 -35.4°
Enters shadow 21:08:18 36° 338° (NNW) 1,325 3.5 -35.8°
